Regional Weather Roundup
Issued by NWS

Home | Current Version | Previous Version | Text Only | Print | Product List | Glossary On
Versions: 1 2 3 4 5 6 7 8 9 10 11 12 13 14 15 16 17 18 19 20 21 22 23 24 25 26 27 28
000
ASUS42 KKEY 211610
RWRKEY

FLORIDA REGIONAL WEATHER ROUNDUP FOR THE FLORIDA KEYS
NATIONAL WEATHER SERVICE KEY WEST FLORIDA
1200 PM EDT MON AUG 21 2017

...SOUTH FLORIDA AND THE KEYS...

CITY           SKY/WX    TMP DP  RH WIND       PRES   REMARKS
FORT MYERS     MOSUNNY   88  76  67 SE8       30.09F HX  99
SW REGIONAL AP MOSUNNY   89  72  56 SE9       30.10F HX  96
NAPLES         PTSUNNY   89  74  60 SE8       30.09F HX  98
MIAMI          MOSUNNY   91  74  57 E12       30.10F HX 100
WEST KENDALL   MOSUNNY   90  74  59 SE12      30.09F HX  99
HOMESTEAD      MOSUNNY   89  77  67 E12       30.08F HX 102
MARATHON       MOSUNNY   91  77  63 E12G17    30.07F HX 104
BOCA CHICA NAS MOSUNNY   90  78  68 E16       30.06F HX 104
KEY WEST INTL  MOSUNNY   90  76  63 E13       30.06F HX 101

...INTERNATIONAL WEATHER...

CITY           SKY/WX    TMP DP  RH WIND       PRES   REMARKS
NASSAU BAHAMAS MOSUNNY   91  81  70 NE16      30.06F HX 110
CANCUN MEXICO  PTSUNNY   86  79  79 NE8       29.98S HX  99
COZUMEL MEXICO PTSUNNY   88  79  74 E10       29.96S HX 102

ADJACENT COASTAL WATERS...

STATION/POSITION TIME  SKY/WX   TEMP    WIND        PRES    WAVE
                                AIR SEA DIR/SP/G            HT/PER
                 (UTC)          (F)     (DEG/KT/KT) (MB)    (FT/S)
PULASKI SHOAL LI 1600            87     110/ 12/ 14 1018.0F
SAND KEY         1550            85                 1018.4F
LONG KEY         NOT AVBL
MOLASSES REEF    NOT AVBL
FOWEY ROCKS      1600            85 86   90/ 13/ 14 1019.8S
Buoy 42097       1600               86                N/A     5/ 6

$$




USA.gov is the U.S. government's official web portal to all federal, state and local government web resources and services.